Change the Weather History Date:

Saturday, January 21, 2012

  Actual Average Record
Temperature  
Mean Temperature 20 °F -  
Max Temperature 23 °F 33 °F 59 °F (2006)
Min Temperature 15 °F 11 °F -20 °F (1961)
Degree Days  
Heating Degree Days 45    
Moisture  
Dew Point 14 °F    
Average Humidity 81    
Maximum Humidity 93    
Minimum Humidity 53    
Precipitation  
Precipitation 0.15 in - - ()
Sea Level Pressure  
Sea Level Pressure 30.13 in    
Wind  
Wind Speed 7 mph (NE)    
Max Wind Speed 13 mph    
Max Gust Speed 20 mph    
Visibility 3 miles    
Events Fog , Snow    
Averages and records for this station are not official NWS values.
T = Trace of Precipitation, MM = Missing Value Source: NWS Daily Summary

Daily Weather History Graph

Daily Weather History Graph

Search for Another Location

Airport or City:

Trip Planner

Search our weather history database for the weather conditions in past years. The results will help you decide how hot, cold, wet, or windy it might be!

Date:

Astronomy

Jan. 21, 2012 Rise Set
Actual Time 7:18 AM EST 5:00 PM EST
Civil Twilight 6:48 AM EST 5:30 PM EST
Nautical Twilight 6:15 AM EST 6:04 PM EST
Astronomical Twilight 5:42 AM EST 6:37 PM EST
Moon 5:48 AM EST (1/21) 3:33 PM EST (1/21)
Length of Visible Light 10h 42m
Length of Day
9h 42m
Waning Crescent, 3% of the Moon is Illuminated
Jan 21
Waning Crescent
Jan 23
New
Jan 30
First Quarter
Feb 7
Full
Feb 14
Last Quarter

Hourly Weather History & Observations

Time (EST) Temp. Windchill Dew Point Humidity Pressure Visibility Wind Dir Wind Speed Gust Speed Precip Events Conditions
12:53 AM 23.0 °F 17.0 °F 8.1 °F 53% 30.25 in 10.0 mi NE 4.6 mph - N/A   Overcast
1:14 AM 21.2 °F 13.6 °F 10.4 °F 63% 30.23 in 2.5 mi NNE 5.8 mph - 0.00 in Snow Light Snow
1:25 AM 19.4 °F 12.8 °F 12.2 °F 74% 30.24 in 1.2 mi North 4.6 mph - 0.00 in Snow Light Snow
1:53 AM 19.9 °F 12.1 °F 16.0 °F 85% 30.25 in 0.8 mi NNE 5.8 mph - 0.00 in Snow Light Snow
2:24 AM 19.4 °F 12.8 °F 15.8 °F 86% 30.25 in 1.0 mi NNE 4.6 mph - 0.02 in Snow Light Snow
2:42 AM 19.4 °F 11.5 °F 15.8 °F 86% 30.22 in 0.8 mi NE 5.8 mph - 0.03 in Snow Light Snow
3:06 AM 19.4 °F 10.4 °F 15.8 °F 86% 30.20 in 0.8 mi NNE 6.9 mph - 0.00 in Snow Light Snow
3:31 AM 19.4 °F 9.5 °F 15.8 °F 86% 30.17 in 0.5 mi NNE 8.1 mph - 0.02 in Fog , Snow Snow
3:53 AM 18.0 °F 7.7 °F 15.1 °F 88% 30.18 in 0.8 mi NE 8.1 mph - 0.03 in Snow Light Snow
4:00 AM 17.6 °F 7.3 °F 15.8 °F 93% 30.16 in 0.8 mi NNE 8.1 mph - 0.01 in Snow Light Snow
4:53 AM 18.0 °F 6.9 °F 14.0 °F 84% 30.15 in 0.8 mi NNE 9.2 mph - 0.03 in Snow Light Snow
5:04 AM 17.6 °F 7.3 °F 14.0 °F 86% 30.12 in 1.0 mi NE 8.1 mph - 0.01 in Snow Light Snow
5:12 AM 17.6 °F 7.3 °F 14.0 °F 86% 30.12 in 0.8 mi NNE 8.1 mph - 0.01 in Snow Light Snow
5:24 AM 17.6 °F 7.3 °F 12.2 °F 79% 30.11 in 1.0 mi NNE 8.1 mph - 0.01 in Snow Light Snow
5:36 AM 17.6 °F 6.4 °F 12.2 °F 79% 30.10 in 1.0 mi NE 9.2 mph - 0.02 in Snow Light Snow
5:50 AM 17.6 °F 6.4 °F 12.2 °F 79% 30.10 in 2.0 mi NNE 9.2 mph - 0.02 in Snow Light Snow
5:53 AM 17.1 °F 6.6 °F 12.9 °F 84% 30.13 in 2.0 mi NNE 8.1 mph - 0.02 in Snow Light Snow
6:02 AM 17.6 °F 7.3 °F 12.2 °F 79% 30.10 in 1.2 mi NE 8.1 mph - 0.00 in Snow Light Snow
6:53 AM 17.1 °F 7.6 °F 12.9 °F 84% 30.12 in 1.0 mi NNE 6.9 mph - 0.01 in Snow Light Snow
7:39 AM 17.6 °F 5.7 °F 12.2 °F 79% 30.10 in 0.8 mi NNE 10.4 mph - 0.01 in Snow Light Snow
8:53 AM 17.1 °F 5.8 °F 12.9 °F 84% 30.11 in 0.5 mi NNE 9.2 mph - 0.03 in Fog , Snow Snow
9:05 AM 17.6 °F 6.4 °F 12.2 °F 79% 30.08 in 0.8 mi NNE 9.2 mph - 0.00 in Snow Light Snow
9:53 AM 17.1 °F 6.6 °F 12.9 °F 84% 30.09 in 0.5 mi NNE 8.1 mph - 0.02 in Fog , Snow Snow
10:08 AM 17.6 °F 5.0 °F 12.2 °F 79% 30.07 in 0.8 mi NNE 11.5 mph - 0.00 in Snow Light Snow
10:23 AM 17.6 °F 5.7 °F 12.2 °F 79% 30.06 in 1.0 mi NNE 10.4 mph - 0.00 in Snow Light Snow
10:31 AM 17.6 °F 4.3 °F 12.2 °F 79% 30.06 in 1.2 mi NNE 12.7 mph - 0.00 in Snow Light Snow
10:49 AM 17.6 °F 6.4 °F 14.0 °F 86% 30.05 in 2.0 mi NE 9.2 mph - 0.00 in Snow Light Snow
11:23 AM 19.4 °F 6.6 °F 14.0 °F 80% 30.04 in 1.2 mi NE 12.7 mph 19.6 mph 0.01 in Snow Light Snow
11:44 AM 19.4 °F 7.9 °F 14.0 °F 80% 30.04 in 2.0 mi NE 10.4 mph - 0.01 in Snow Light Snow
11:53 AM 19.0 °F 6.8 °F 14.0 °F 81% 30.05 in 3.0 mi NE 11.5 mph - 0.01 in Snow Light Snow
12:40 PM 19.4 °F 9.5 °F 15.8 °F 86% 30.02 in 2.0 mi NNE 8.1 mph - 0.00 in Snow Light Snow
1:10 PM 21.2 °F 11.7 °F 15.8 °F 80% 30.02 in 3.0 mi NE 8.1 mph - 0.00 in   Overcast
1:42 PM 21.2 °F 10.1 °F 15.8 °F 80% 30.02 in 9.0 mi NE 10.4 mph - 0.00 in   Overcast
1:53 PM 21.0 °F 11.4 °F 16.0 °F 81% 30.04 in 9.0 mi NE 8.1 mph - 0.00 in   Overcast
2:44 PM 21.2 °F 11.7 °F 17.6 °F 86% 30.04 in 2.0 mi ENE 8.1 mph - N/A   Overcast
2:53 PM 21.0 °F 10.6 °F 17.1 °F 85% 30.06 in 1.8 mi ENE 9.2 mph - N/A   Overcast
3:01 PM 21.2 °F 11.7 °F 17.6 °F 86% 30.04 in 2.0 mi NE 8.1 mph - N/A   Overcast
3:26 PM 21.2 °F 11.7 °F 17.6 °F 86% 30.05 in 3.0 mi ENE 8.1 mph - N/A   Haze
3:53 PM 21.9 °F 14.5 °F 17.1 °F 82% 30.09 in 7.0 mi ENE 5.8 mph - N/A   Overcast
4:53 PM 21.9 °F 14.5 °F 17.1 °F 82% 30.14 in 10.0 mi NNE 5.8 mph - N/A   Overcast
5:53 PM 21.9 °F 15.7 °F 15.1 °F 75% 30.17 in 10.0 mi NE 4.6 mph - N/A   Overcast
6:53 PM 21.9 °F 14.5 °F 14.0 °F 72% 30.20 in 10.0 mi NE 5.8 mph - N/A   Overcast
7:53 PM 21.0 °F 10.6 °F 12.9 °F 71% 30.23 in 10.0 mi NE 9.2 mph - N/A   Overcast
8:53 PM 21.0 °F 12.4 °F 12.9 °F 71% 30.27 in 10.0 mi NE 6.9 mph - N/A   Overcast
9:53 PM 19.9 °F 11.1 °F 12.0 °F 71% 30.29 in 10.0 mi North 6.9 mph - N/A   Mostly Cloudy
11:53 PM 15.1 °F - 10.0 °F 80% 30.34 in 10.0 mi Calm Calm - N/A   Clear